Simultaneous Nadir Overpasses (SNOs) Predictions

Prediction of SNOs between AQUA and NPP Satellite Orbit:

Table of predicted SNOs for the next 14.0 days since TLE Epoch: 7/5/2019
Index Date (AQUA) Time (AQUA) Lat,Lon (AQUA) SZA (AQUA ) Date (NPP) Time (NPP) Lat,Lon (NPP) SZA (NPP ) Distance(km) Time Diff (sec)
1 07/06/2019 21:48:55 75.08, 89.23 76.37 07/06/2019 21:48:19 75.08, 89.19 76.41 1.38 36
2 07/06/2019 22:38:00 -76.23, -99.80 104.97 07/06/2019 22:38:40 -76.23, -99.81 105.00 0.34 40
3 07/09/2019 14:05:13 75.60,-153.48 76.09 07/09/2019 14:05:04 75.60,-153.48 76.10 0.02 9
4 07/09/2019 14:54:19 -76.67, 17.56 105.19 07/09/2019 14:55:26 -76.68, 17.61 105.26 1.55 67
5 07/12/2019 05:32:38 -74.50, 151.87 102.31 07/12/2019 05:31:39 -74.49, 151.79 102.24 2.58 59
6 07/12/2019 06:21:31 76.09, -36.10 75.86 07/12/2019 06:21:49 76.10, -36.03 75.83 1.92 18
7 07/14/2019 21:48:52 -75.16, -90.56 102.66 07/14/2019 21:48:20 -75.16, -90.57 102.63 0.28 32
8 07/14/2019 22:37:56 76.19, 80.09 76.15 07/14/2019 22:38:42 76.19, 80.03 76.12 1.63 46
9 07/17/2019 13:21:57 54.62,-164.96 98.95 07/17/2019 13:20:45 54.84,-166.38 99.27 94.74 72
10 07/17/2019 14:05:07 -75.80, 27.13 102.97 07/17/2019 14:05:02 -75.81, 27.22 102.99 2.74 5




NCC Satellite Simultaneous Nadir Overpasses (SNOs) Prediction Service
